Time,TemperatureF,DewpointF,PressureIn,WindDirection,WindDirectionDegrees,WindSpeedMPH,WindSpeedGustMPH,Humidity,HourlyPrecipIn,Conditions,Clouds,dailyrainin,SoftwareType,DateUTC
2013-08-08 00:02:00,56.0,55.0,-100.00,ESE,105,0.0,0.0,96,0.00,,,-99.99,,2013-08-08 05:02:00,
2013-08-08 00:11:00,55.0,54.0,-100.00,East,80,0.0,0.0,96,0.00,,,-99.99,,2013-08-08 05:11:00,
2013-08-08 00:22:00,55.0,54.0,-100.00,WNW,290,0.0,1.0,96,0.00,,,-99.99,,2013-08-08 05:22:00,
2013-08-08 00:33:00,55.0,54.0,-100.00,WNW,290,0.0,1.0,96,0.00,,,-99.99,,2013-08-08 05:33:00,
2013-08-08 00:43:00,54.0,53.0,-100.00,NNE,20,0.0,0.0,96,0.00,,,-99.99,,2013-08-08 05:43:00,
2013-08-08 00:52:00,54.0,53.0,-100.00,NE,35,1.0,1.0,96,0.00,,,-99.99,,2013-08-08 05:52:00,
2013-08-08 01:01:00,53.0,52.0,-100.00,WNW,285,0.0,1.0,96,0.00,,,-99.99,,2013-08-08 06:01:00,
2013-08-08 01:12:00,53.0,52.0,-100.00,WNW,285,0.0,0.0,96,0.00,,,-99.99,,2013-08-08 06:12:00,
2013-08-08 01:22:00,53.0,52.0,-100.00,North,0,1.0,1.0,96,0.00,,,-99.99,,2013-08-08 06:22:00,
2013-08-08 01:32:00,53.0,52.0,-100.00,North,5,0.0,1.0,96,0.00,,,-99.99,,2013-08-08 06:32:00,
2013-08-08 01:43:00,53.0,52.0,-100.00,SE,130,0.0,0.0,96,0.00,,,-99.99,,2013-08-08 06:43:00,
2013-08-08 01:52:00,53.0,52.0,-100.00,SE,130,0.0,0.0,96,0.00,,,-99.99,,2013-08-08 06:52:00,
2013-08-08 02:01:00,52.0,51.0,-100.00,NW,325,0.0,0.0,96,0.00,,,-99.99,,2013-08-08 07:01:00,
2013-08-08 02:12:00,52.0,51.0,-100.00,NW,325,0.0,0.0,96,0.00,,,-99.99,,2013-08-08 07:12:00,
2013-08-08 02:22:00,52.0,51.0,-100.00,NW,325,0.0,0.0,96,0.00,,,-99.99,,2013-08-08 07:22:00,
2013-08-08 02:32:00,51.0,50.0,-100.00,WNW,285,2.0,2.0,96,0.00,,,-99.99,,2013-08-08 07:32:00,
2013-08-08 02:43:00,51.0,50.0,-100.00,West,280,0.0,2.0,96,0.00,,,-99.99,,2013-08-08 07:43:00,
2013-08-08 03:02:00,52.0,51.0,-100.00,East,90,0.0,0.0,96,0.00,,,-99.99,,2013-08-08 08:02:00,
2013-08-08 03:11:00,53.0,52.0,-100.00,ESE,110,0.0,2.0,96,0.00,,,-99.99,,2013-08-08 08:11:00,
2013-08-08 03:22:00,52.0,51.0,-100.00,NE,35,0.0,0.0,96,0.00,,,-99.99,,2013-08-08 08:22:00,
2013-08-08 03:32:00,52.0,51.0,-100.00,East,95,1.0,2.0,96,0.00,,,-99.99,,2013-08-08 08:32:00,
2013-08-08 03:43:00,52.0,51.0,-100.00,East,95,1.0,2.0,96,0.00,,,-99.99,,2013-08-08 08:43:00,
2013-08-08 03:53:00,52.0,51.0,-100.00,ESE,105,1.0,2.0,96,0.00,,,-99.99,,2013-08-08 08:53:00,
2013-08-08 04:01:00,51.0,51.0,-100.00,West,280,0.0,2.0,96,0.00,,,-99.99,,2013-08-08 09:01:00,
2013-08-08 04:12:00,51.0,50.0,-100.00,East,80,0.0,0.0,96,0.00,,,-99.99,,2013-08-08 09:12:00,
2013-08-08 04:22:00,51.0,50.0,-100.00,NE,45,1.0,2.0,96,0.00,,,-99.99,,2013-08-08 09:22:00,
2013-08-08 04:32:00,51.0,50.0,-100.00,NE,45,1.0,2.0,96,0.00,,,-99.99,,2013-08-08 09:32:00,
2013-08-08 04:43:00,51.0,50.0,-100.00,WSW,250,1.0,3.0,96,0.00,,,-99.99,,2013-08-08 09:43:00,
2013-08-08 04:53:00,51.0,50.0,-100.00,WSW,250,1.0,3.0,96,0.00,,,-99.99,,2013-08-08 09:53:00,
2013-08-08 05:01:00,51.0,50.0,-100.00,NNE,15,0.0,0.0,96,0.00,,,-99.99,,2013-08-08 10:01:00,
2013-08-08 05:12:00,50.0,49.0,-100.00,WNW,295,1.0,2.0,96,0.00,,,-99.99,,2013-08-08 10:12:00,
2013-08-08 05:22:00,50.0,49.0,-100.00,WNW,295,1.0,2.0,96,0.00,,,-99.99,,2013-08-08 10:22:00,
2013-08-08 05:32:00,50.0,49.0,-100.00,WNW,285,1.0,2.0,96,0.00,,,-99.99,,2013-08-08 10:32:00,
2013-08-08 05:43:00,51.0,50.0,-100.00,NW,325,0.0,1.0,96,0.00,,,-99.99,,2013-08-08 10:43:00,
2013-08-08 05:52:00,51.0,50.0,-100.00,NNE,20,1.0,2.0,96,0.00,,,-99.99,,2013-08-08 10:52:00,
2013-08-08 06:02:00,51.0,51.0,-100.00,ENE,75,2.0,2.0,96,0.00,,,-99.99,,2013-08-08 11:02:00,
2013-08-08 06:11:00,51.0,51.0,-100.00,ESE,110,0.0,2.0,96,0.00,,,-99.99,,2013-08-08 11:11:00,
2013-08-08 06:22:00,51.0,50.0,-100.00,NNE,30,0.0,1.0,96,0.00,,,-99.99,,2013-08-08 11:22:00,
2013-08-08 06:32:00,50.0,49.0,-100.00,NNE,30,0.0,0.0,96,0.00,,,-99.99,,2013-08-08 11:32:00,
2013-08-08 06:43:00,49.0,49.0,-100.00,North,10,0.0,0.0,96,0.00,,,-99.99,,2013-08-08 11:43:00,
2013-08-08 06:52:00,51.0,50.0,-100.00,East,80,0.0,1.0,96,0.00,,,-99.99,,2013-08-08 11:52:00,
2013-08-08 07:11:00,52.0,51.0,-100.00,WNW,295,0.0,1.0,96,0.00,,,-99.99,,2013-08-08 12:11:00,
2013-08-08 07:21:00,53.0,53.0,-100.00,ENE,70,1.0,2.0,96,0.00,,,-99.99,,2013-08-08 12:21:00,
2013-08-08 07:32:00,54.0,54.0,-100.00,NE,55,1.0,3.0,96,0.00,,,-99.99,,2013-08-08 12:32:00,
2013-08-08 07:43:00,56.0,55.0,-100.00,ESE,115,2.0,3.0,96,0.00,,,-99.99,,2013-08-08 12:43:00,
2013-08-08 08:01:00,59.0,58.0,-100.00,ESE,120,2.0,4.0,96,0.00,,,-99.99,,2013-08-08 13:01:00,
2013-08-08 08:11:00,60.0,58.0,-100.00,ESE,120,4.0,6.0,96,0.00,,,-99.99,,2013-08-08 13:11:00,
2013-08-08 08:22:00,60.0,58.0,-100.00,ESE,120,4.0,6.0,96,0.00,,,-99.99,,2013-08-08 13:22:00,
2013-08-08 08:32:00,63.0,60.0,-100.00,SE,135,4.0,6.0,89,0.00,,,-99.99,,2013-08-08 13:32:00,
2013-08-08 08:43:00,64.0,56.0,-100.00,SE,130,5.0,12.0,75,0.00,,,-99.99,,2013-08-08 13:43:00,
2013-08-08 08:52:00,65.0,54.0,-100.00,SE,140,4.0,9.0,67,0.00,,,-99.99,,2013-08-08 13:52:00,
2013-08-08 09:02:00,66.0,53.0,-100.00,SE,125,6.0,10.0,64,0.00,,,-99.99,,2013-08-08 14:02:00,
2013-08-08 09:11:00,67.0,53.0,-100.00,SSE,165,6.0,9.0,61,0.00,,,-99.99,,2013-08-08 14:11:00,
2013-08-08 09:22:00,68.0,53.0,-100.00,SSE,160,4.0,7.0,59,0.00,,,-99.99,,2013-08-08 14:22:00,
2013-08-08 09:32:00,68.0,53.0,-100.00,SE,125,2.0,6.0,59,0.00,,,-99.99,,2013-08-08 14:32:00,
2013-08-08 09:43:00,68.0,53.0,-100.00,SSE,150,4.0,9.0,59,0.00,,,-99.99,,2013-08-08 14:43:00,
2013-08-08 09:53:00,67.0,53.0,-100.00,SE,145,6.0,9.0,59,0.00,,,-99.99,,2013-08-08 14:53:00,
2013-08-08 10:02:00,67.0,53.0,-100.00,SE,145,6.0,9.0,59,0.00,,,-99.99,,2013-08-08 15:02:00,
2013-08-08 10:11:00,68.0,54.0,-100.00,ESE,120,2.0,4.0,60,0.00,,,-99.99,,2013-08-08 15:11:00,
2013-08-08 10:22:00,68.0,54.0,-100.00,ESE,120,3.0,5.0,59,0.00,,,-99.99,,2013-08-08 15:22:00,
2013-08-08 10:32:00,69.0,54.0,-100.00,East,100,0.0,4.0,58,0.00,,,-99.99,,2013-08-08 15:32:00,
2013-08-08 10:43:00,69.0,54.0,-100.00,SE,130,2.0,4.0,58,0.00,,,-99.99,,2013-08-08 15:43:00,
2013-08-08 10:53:00,69.0,54.0,-100.00,SE,130,2.0,4.0,58,0.00,,,-99.99,,2013-08-08 15:53:00,
2013-08-08 11:02:00,70.0,54.0,-100.00,WSW,250,1.0,2.0,57,0.00,,,-99.99,,2013-08-08 16:02:00,
2013-08-08 11:11:00,69.0,53.0,-100.00,South,175,1.0,3.0,55,0.00,,,-99.99,,2013-08-08 16:11:00,
2013-08-08 11:22:00,69.0,54.0,-100.00,WSW,240,0.0,1.0,56,0.00,,,-99.99,,2013-08-08 16:22:00,
2013-08-08 11:32:00,70.0,53.0,-100.00,West,275,0.0,0.0,55,0.00,,,-99.99,,2013-08-08 16:32:00,
2013-08-08 11:42:00,70.0,53.0,-100.00,West,275,0.0,0.0,55,0.00,,,-99.99,,2013-08-08 16:42:00,
2013-08-08 11:52:00,70.0,54.0,-100.00,North,5,0.0,2.0,58,0.00,,,-99.99,,2013-08-08 16:52:00,
2013-08-08 12:02:00,70.0,54.0,-100.00,North,5,0.0,2.0,58,0.00,,,-99.99,,2013-08-08 17:02:00,
2013-08-08 12:11:00,70.0,56.0,-100.00,West,280,2.0,3.0,59,0.00,,,-99.99,,2013-08-08 17:11:00,
2013-08-08 12:21:00,70.0,56.0,-100.00,SW,235,2.0,3.0,62,0.00,,,-99.99,,2013-08-08 17:21:00,
2013-08-08 12:32:00,70.0,56.0,-100.00,WSW,250,1.0,4.0,62,0.00,,,-99.99,,2013-08-08 17:32:00,
2013-08-08 12:43:00,70.0,56.0,-100.00,WSW,245,2.0,4.0,61,0.00,,,-99.99,,2013-08-08 17:43:00,
2013-08-08 12:52:00,70.0,56.0,-100.00,WSW,240,3.0,5.0,62,0.00,,,-99.99,,2013-08-08 17:52:00,
2013-08-08 13:01:00,70.0,56.0,-100.00,WSW,255,1.0,6.0,63,0.00,,,-99.99,,2013-08-08 18:01:00,
2013-08-08 13:11:00,69.0,56.0,-100.00,WSW,240,4.0,7.0,63,0.00,,,-99.99,,2013-08-08 18:11:00,
2013-08-08 13:22:00,69.0,57.0,-100.00,SW,235,3.0,7.0,66,0.00,,,-99.99,,2013-08-08 18:22:00,
2013-08-08 13:32:00,70.0,57.0,-100.00,SW,235,4.0,7.0,64,0.00,,,-99.99,,2013-08-08 18:32:00,
2013-08-08 13:43:00,71.0,57.0,-100.00,West,260,2.0,6.0,61,0.00,,,-99.99,,2013-08-08 18:43:00,
2013-08-08 14:01:00,73.0,56.0,-100.00,SW,220,1.0,6.0,56,0.00,,,-99.99,,2013-08-08 19:01:00,
2013-08-08 14:11:00,73.0,56.0,-100.00,South,170,4.0,7.0,55,0.00,,,-99.99,,2013-08-08 19:11:00,
2013-08-08 14:22:00,74.0,56.0,-100.00,WSW,240,5.0,7.0,51,0.00,,,-99.99,,2013-08-08 19:22:00,
2013-08-08 14:32:00,75.0,56.0,-100.00,SW,235,1.0,7.0,50,0.00,,,-99.99,,2013-08-08 19:32:00,
2013-08-08 14:43:00,76.0,55.0,-100.00,South,170,3.0,6.0,47,0.00,,,-99.99,,2013-08-08 19:43:00,
2013-08-08 15:02:00,77.0,54.0,-100.00,NW,310,4.0,7.0,45,0.01,,,-99.99,,2013-08-08 20:02:00,
2013-08-08 15:11:00,77.0,57.0,-100.00,NW,305,6.0,8.0,50,0.03,,,-99.99,,2013-08-08 20:11:00,
2013-08-08 15:22:00,78.0,56.0,-100.00,WNW,285,4.0,8.0,46,0.04,,,-99.99,,2013-08-08 20:22:00,
2013-08-08 15:32:00,78.0,56.0,-100.00,WNW,295,6.0,9.0,46,0.00,,,-99.99,,2013-08-08 20:32:00,
2013-08-08 15:42:00,78.0,56.0,-100.00,WNW,300,6.0,10.0,47,0.00,,,-99.99,,2013-08-08 20:42:00,
2013-08-08 15:52:00,78.0,55.0,-100.00,WNW,285,7.0,10.0,44,0.04,,,-99.99,,2013-08-08 20:52:00,
2013-08-08 16:01:00,79.0,55.0,-100.00,West,270,4.0,10.0,44,0.00,,,-99.99,,2013-08-08 21:01:00,
2013-08-08 16:24:00,79.0,56.0,-100.00,WNW,300,5.0,9.0,44,0.00,,,-99.99,,2013-08-08 21:24:00,
2013-08-08 16:53:00,77.0,58.0,-100.00,NNW,345,2.0,9.0,51,0.00,,,-99.99,,2013-08-08 21:53:00,
2013-08-08 17:04:00,77.0,56.0,-100.00,West,280,3.0,6.0,48,0.00,,,-99.99,,2013-08-08 22:04:00,
2013-08-08 17:16:00,78.0,56.0,-100.00,West,260,2.0,6.0,47,0.00,,,-99.99,,2013-08-08 22:16:00,
2013-08-08 17:24:00,78.0,57.0,-100.00,NW,305,4.0,7.0,49,0.00,,,-99.99,,2013-08-08 22:24:00,
2013-08-08 17:35:00,76.0,56.0,-100.00,West,265,2.0,6.0,48,0.03,,,-99.99,,2013-08-08 22:35:00,
2013-08-08 17:47:00,78.0,58.0,-100.00,WNW,285,2.0,3.0,49,0.00,,,-99.99,,2013-08-08 22:47:00,
2013-08-08 18:04:00,78.0,57.0,-100.00,WNW,285,1.0,3.0,47,0.00,,,-99.99,,2013-08-08 23:04:00,
2013-08-08 18:14:00,78.0,57.0,-100.00,WSW,240,2.0,3.0,47,0.00,,,-99.99,,2013-08-08 23:14:00,
2013-08-08 18:23:00,78.0,57.0,-100.00,WNW,285,2.0,4.0,48,0.00,,,-99.99,,2013-08-08 23:23:00,
2013-08-08 18:36:00,78.0,56.0,-100.00,SE,135,0.0,2.0,46,0.00,,,-99.99,,2013-08-08 23:36:00,
2013-08-08 19:05:00,76.0,58.0,-100.00,WNW,285,3.0,5.0,53,0.00,,,-99.99,,2013-08-09 00:05:00,
2013-08-08 19:14:00,75.0,57.0,-100.00,WNW,285,4.0,6.0,53,0.04,,,-99.99,,2013-08-09 00:14:00,
2013-08-08 19:24:00,74.0,57.0,-100.00,WNW,290,2.0,5.0,55,0.00,,,-99.99,,2013-08-09 00:24:00,
2013-08-08 19:34:00,73.0,58.0,-100.00,WSW,240,2.0,3.0,59,0.00,,,-99.99,,2013-08-09 00:34:00,
2013-08-08 19:45:00,72.0,60.0,-100.00,WNW,295,3.0,3.0,64,0.00,,,-99.99,,2013-08-09 00:45:00,
2013-08-08 20:02:00,72.0,62.0,-100.00,WNW,300,3.0,4.0,72,0.00,,,-99.99,,2013-08-09 01:02:00,
2013-08-08 20:45:00,70.0,63.0,-100.00,NW,310,0.0,0.0,78,0.00,,,-99.99,,2013-08-09 01:45:00,
2013-08-08 20:56:00,70.0,63.0,-100.00,NNW,335,0.0,0.0,80,0.00,,,-99.99,,2013-08-09 01:56:00,
2013-08-08 21:04:00,69.0,63.0,-100.00,SE,130,2.0,2.0,80,0.00,,,-99.99,,2013-08-09 02:04:00,
2013-08-08 21:13:00,69.0,63.0,-100.00,East,90,0.0,3.0,80,0.00,,,-99.99,,2013-08-09 02:13:00,
2013-08-08 21:24:00,69.0,63.0,-100.00,East,95,1.0,1.0,81,0.00,,,-99.99,,2013-08-09 02:24:00,
2013-08-08 21:36:00,69.0,63.0,-100.00,SE,130,1.0,2.0,79,0.00,,,-99.99,,2013-08-09 02:36:00,
2013-08-08 21:45:00,69.0,63.0,-100.00,ENE,60,1.0,1.0,80,0.00,,,-99.99,,2013-08-09 02:45:00,
2013-08-08 21:55:00,68.0,63.0,-100.00,SE,125,0.0,1.0,82,0.00,,,-99.99,,2013-08-09 02:55:00,
2013-08-08 22:06:00,67.0,63.0,-100.00,SE,125,0.0,0.0,85,0.00,,,-99.99,,2013-08-09 03:06:00,
2013-08-08 22:15:00,67.0,63.0,-100.00,ESE,110,1.0,2.0,86,0.00,,,-99.99,,2013-08-09 03:15:00,
2013-08-08 22:23:00,67.0,63.0,-100.00,SE,130,2.0,3.0,87,0.00,,,-99.99,,2013-08-09 03:23:00,
2013-08-08 22:53:00,67.0,63.0,-100.00,SW,220,0.0,2.0,88,0.00,,,-99.99,,2013-08-09 03:53:00,
2013-08-08 23:01:00,67.0,63.0,-100.00,North,0,0.0,0.0,89,0.00,,,-99.99,,2013-08-09 04:01:00,
2013-08-08 23:12:00,67.0,63.0,-100.00,SE,130,0.0,1.0,90,0.00,,,-99.99,,2013-08-09 04:12:00,
2013-08-08 23:22:00,66.0,63.0,-100.00,WSW,240,0.0,0.0,90,0.00,,,-99.99,,2013-08-09 04:22:00,
2013-08-08 23:33:00,66.0,63.0,-100.00,WNW,295,0.0,0.0,91,0.00,,,-99.99,,2013-08-09 04:33:00,
2013-08-08 23:43:00,66.0,63.0,-100.00,WNW,285,0.0,0.0,92,0.00,,,-99.99,,2013-08-09 04:43:00,